Zurück zum Katalog

USA 32

AktivMilitärPO
NORAD 19460·PAYLOAD·🇺🇸 United States

Gestartet Sep 5, 1988 von Vandenberg Space Force Base

Loading…

Nächste Überflüge (nächste 24 Stunden)

TLE

AktuellSource: Space-Track

Epoche: Sep 13, 2026, 12:59 UTC

1 19460U 88078A   26256.54164724  .00000120  00000-0  35575-4 0  9997
2 19460  84.9825  61.6703 0003455 152.1831 207.9548 14.34462704121856

Verfolge USA 32 in Echtzeit mit AllMySat

Download on the App Store